Tracking 28799 objects as of 18-Apr-2024
HD Live streaming from Space Station
objects crossing your sky now

CZ-4 DEB

Track CZ-4 DEB now!
10-day predictions


NORAD ID: 37609
Int'l Code: 1990-081CV
Perigee: 824.8 km
Apogee: 921.8 km
Inclination: 98.8 °
Period: 102.3 minutes
Semi major axis: 7244 km
RCS: 0.0032 m2 (small)
Launch date: September 3, 1990
Source: People's Republic of China (PRC)
Launch site: Taiyaun Space Center, China (TSC)

Note: This is SATELLITE DEBRIS
Your satellite tracking list
Your tracking list is empty




NASA's NSSDC Master Catalog

Two Line Element Set (TLE):
1 37609U 90081CV  24101.20914024  .00000224  00000-0  15391-3 0  9993
2 37609  98.8345  83.4162 0066968 175.9275 197.1455 14.08022216 40326
Source of the keplerian elements: AFSPC